Simultaneous Nadir Overpasses (SNOs) Predictions

Prediction of SNOs between NOAA-19 and NPP Satellite Orbit:

Table of predicted SNOs for the next 14.0 days since TLE Epoch: 6/22/2018
Index Date (NOAA-19) Time (NOAA-19) Lat,Lon (NOAA-19) SZA (NOAA-19 ) Date (NPP) Time (NPP) Lat,Lon (NPP) SZA (NPP ) Distance(km) Time Diff (sec)
1 06/25/2018 04:47:15 -80.52,-117.33 119.79 06/25/2018 04:48:25 -80.52,-117.17 119.84 3.14 70
2 06/25/2018 05:38:12 80.52, 50.08 60.20 06/25/2018 05:39:11 80.54, 49.94 60.20 3.08 59
3 06/25/2018 06:29:15 -80.53,-142.44 119.82 06/25/2018 06:29:55 -80.53,-142.58 119.83 2.65 40
4 06/25/2018 07:20:13 80.53, 24.63 60.20 06/25/2018 07:20:41 80.54, 24.53 60.21 2.54 28
5 06/25/2018 08:11:16 -80.54,-167.89 119.83 06/25/2018 08:11:25 -80.53,-167.99 119.82 1.89 9
6 06/25/2018 09:02:14 80.53, -0.82 60.20 06/25/2018 09:02:11 80.54, -0.88 60.22 2.10 3
7 06/25/2018 09:53:17 -80.54, 166.65 119.83 06/25/2018 09:52:55 -80.53, 166.60 119.82 1.19 22
8 06/25/2018 10:44:15 80.53, -26.27 60.19 06/25/2018 10:43:41 80.55, -26.29 60.23 1.84 34
9 06/25/2018 11:35:18 -80.54, 141.20 119.83 06/25/2018 11:34:25 -80.53, 141.19 119.81 0.75 53




NCC Satellite Simultaneous Nadir Overpasses (SNOs) Prediction Service
